Location: Unspecified
(36.5600°N, 136.6600°E)
Time: 03:40:44
(UTC+09:00)

BlueWalker 3 - Pass Details

Date: 20 June 2024
Orbit: 480 x 491 km, 53.2° (Epoch: 23 July)

Event Time Altitude Azimuth Distance (km) Brightness Sun altitude
Rises 20:24:16 0° 238° (WSW) 2,533 5.7 -12.1°
Reaches altitude 10° 20:26:29 10° 243° (WSW) 1,654 4.8 -12.4°
Maximum altitude 20:30:07 50° 320° (NW) 619 2.8 -13.0°
Drops below altitude 10° 20:33:45 10° 37° (NE) 1,657 4.6 -13.5°
Sets 20:35:58 0° 43° (NE) 2,538 5.5 -13.8°
